Grand Canyon, AZ

3:57 PM MST on June 26, 2017 (GMT -0700)
Grand Canyon National Park

Weather History for KGCN - February, 2012

Change the Weather History Date:

Monday, February 13, 2012

  Actual Average Record
Temperature  
Mean Temperature 32 °F -  
Max Temperature 37 °F 43 °F 64 °F (2016)
Min Temperature 27 °F 17 °F -4 °F (2004)
Degree Days  
Heating Degree Days 33    
Moisture  
Dew Point 28 °F    
Average Humidity 83    
Maximum Humidity 93    
Minimum Humidity 65    
Precipitation  
Precipitation 0.03 in - - ()
Sea Level Pressure  
Sea Level Pressure 29.83 in    
Wind  
Wind Speed 10 mph (SSW)    
Max Wind Speed 22 mph    
Max Gust Speed 32 mph    
Visibility 8 miles    
Events Snow    
Averages and records for this station are not official NWS values.
T = Trace of Precipitation, MM = Missing Value Source: NWS Daily Summary

Daily Weather History Graph

Daily Weather History Graph

Search for Another Location

Airport or City:

Trip Planner

Search our weather history database for the weather conditions in past years. The results will help you decide how hot, cold, wet, or windy it might be!

Date:

Astronomy

Feb. 13, 2012 Rise Set
Actual Time 7:18 AM MST 6:07 PM MST
Civil Twilight 6:52 AM MST 6:34 PM MST
Nautical Twilight 6:22 AM MST 7:04 PM MST
Astronomical Twilight 5:52 AM MST 7:33 PM MST
Moon No Moon Rise 10:34 AM MST (2/13)
Length of Visible Light 11h 41m
Length of Day
10h 49m
Waning Gibbous, 61% of the Moon is Illuminated
Feb 13
Waning Gibbous
Feb 14
Last Quarter
Feb 21
New
Feb 29
First Quarter
Mar 8
Full

Hourly Weather History & Observations

Time (MST) Temp. Windchill Dew Point Humidity Pressure Visibility Wind Dir Wind Speed Gust Speed Precip Events Conditions
12:44 AM 30.2 °F 23.4 °F 28.4 °F 93% 29.91 in 10.0 mi SW 6.9 mph - N/A   Overcast
12:54 AM 30.9 °F 24.3 °F 28.9 °F 92% 29.86 in 10.0 mi SW 6.9 mph - N/A   Overcast
1:54 AM 30.9 °F 27.5 °F 28.9 °F 92% 29.88 in 5.0 mi SW 3.5 mph - 0.00 in Snow Light Snow
2:41 AM 30.2 °F 24.3 °F 28.4 °F 93% 29.91 in 3.0 mi SW 5.8 mph - 0.01 in Snow Light Snow
2:54 AM 30.9 °F 24.3 °F 28.9 °F 92% 29.85 in 5.0 mi SW 6.9 mph - 0.01 in Snow Light Snow
3:54 AM 30.9 °F 23.5 °F 28.0 °F 89% 29.86 in 10.0 mi SSW 8.1 mph - 0.00 in   Overcast
4:54 AM 30.0 °F 23.2 °F 28.0 °F 92% 29.86 in 10.0 mi SW 6.9 mph - N/A   Mostly Cloudy
5:54 AM 28.0 °F 22.8 °F 26.1 °F 92% 29.88 in 10.0 mi SW 4.6 mph - N/A   Partly Cloudy
6:54 AM 27.0 °F 21.6 °F 25.0 °F 92% 29.91 in 10.0 mi SW 4.6 mph - N/A   Partly Cloudy
7:08 AM 28.4 °F 22.2 °F 24.8 °F 86% 29.90 in 10.0 mi SSW 5.8 mph - N/A   Mostly Cloudy
7:16 AM 28.4 °F 21.2 °F 26.6 °F 93% 29.90 in 10.0 mi SSW 6.9 mph - N/A   Overcast
7:52 AM 30.2 °F 23.4 °F 28.4 °F 93% 29.90 in 10.0 mi SW 6.9 mph - N/A   Overcast
7:54 AM 30.0 °F 24.1 °F 28.0 °F 92% 29.90 in 10.0 mi SSW 5.8 mph - N/A   Overcast
8:54 AM 33.1 °F 24.9 °F 30.0 °F 89% 29.89 in 10.0 mi SSW 10.4 mph - N/A   Overcast
9:11 AM 33.8 °F 25.3 °F 30.2 °F 87% 29.91 in 10.0 mi SSW 11.5 mph - N/A   Overcast
9:21 AM 33.8 °F 25.3 °F 30.2 °F 87% 29.90 in 10.0 mi SW 11.5 mph - N/A   Overcast
9:54 AM 35.1 °F 24.8 °F 30.0 °F 82% 29.88 in 10.0 mi SW 17.3 mph 20.7 mph N/A   Overcast
10:54 AM 37.0 °F 27.0 °F 28.9 °F 73% 29.85 in 10.0 mi SW 18.4 mph 25.3 mph 0.00 in   Overcast
11:42 AM 35.6 °F 27.1 °F 30.2 °F 81% 29.89 in 2.5 mi SSW 12.7 mph 21.9 mph 0.00 in Snow Light Snow
11:52 AM 35.6 °F 27.1 °F 30.2 °F 81% 29.89 in 1.8 mi SSW 12.7 mph 20.7 mph 0.00 in Snow Light Snow
11:54 AM 34.0 °F 25.0 °F 30.0 °F 85% 29.86 in 2.0 mi SSW 12.7 mph 20.7 mph 0.00 in Snow Light Snow
11:58 AM 33.8 °F 23.9 °F 30.2 °F 87% 29.88 in 1.8 mi SW 15.0 mph 19.6 mph 0.00 in Snow Light Snow
12:12 PM 33.8 °F 24.3 °F 30.2 °F 87% 29.88 in 1.0 mi SSW 13.8 mph - 0.01 in Snow Light Snow
12:24 PM 33.8 °F 22.8 °F 30.2 °F 87% 29.87 in 2.0 mi SW 18.4 mph 24.2 mph 0.02 in Snow Light Snow
12:33 PM 35.6 °F 26.2 °F 30.2 °F 81% 29.87 in 9.0 mi SW 15.0 mph - 0.02 in   Overcast
12:54 PM 35.1 °F 25.2 °F 28.9 °F 78% 29.83 in 10.0 mi SW 16.1 mph 25.3 mph 0.02 in   Overcast
1:54 PM 36.0 °F 27.5 °F 28.9 °F 76% 29.78 in 10.0 mi SSW 12.7 mph 23.0 mph N/A   Overcast
2:38 PM 37.4 °F 26.6 °F 28.4 °F 70% 29.79 in 10.0 mi SSW 21.9 mph 32.2 mph N/A   Overcast
2:54 PM 37.0 °F 26.4 °F 28.0 °F 70% 29.74 in 10.0 mi SSW 20.7 mph 32.2 mph N/A   Overcast
3:54 PM 37.9 °F 28.5 °F 28.9 °F 70% 29.72 in 10.0 mi SSW 17.3 mph - N/A   Scattered Clouds
4:54 PM 37.9 °F 28.5 °F 27.0 °F 65% 29.74 in 10.0 mi South 17.3 mph 31.1 mph N/A   Mostly Cloudy
5:54 PM 36.0 °F 26.3 °F 28.0 °F 73% 29.76 in 10.0 mi South 16.1 mph 21.9 mph N/A   Overcast
6:54 PM 35.1 °F 25.9 °F 28.0 °F 76% 29.79 in 10.0 mi SW 13.8 mph - N/A   Overcast
7:36 PM 35.6 °F 25.9 °F 26.6 °F 70% 29.79 in 10.0 mi South 16.1 mph 24.2 mph N/A   Overcast
7:54 PM 35.1 °F 27.4 °F 27.0 °F 72% 29.76 in 10.0 mi SSW 10.4 mph 20.7 mph N/A   Overcast
8:12 PM 33.8 °F 25.8 °F 26.6 °F 75% 29.79 in 10.0 mi South 10.4 mph 19.6 mph N/A   Overcast
8:54 PM 35.1 °F 25.5 °F 27.0 °F 72% 29.75 in 10.0 mi South 15.0 mph 23.0 mph N/A   Overcast
9:54 PM 34.0 °F 25.0 °F 26.1 °F 73% 29.72 in 10.0 mi South 12.7 mph 23.0 mph N/A   Mostly Cloudy
10:04 PM 33.8 °F 26.4 °F 26.6 °F 75% 29.77 in 10.0 mi South 9.2 mph 18.4 mph N/A   Overcast
10:54 PM 34.0 °F 26.6 °F 26.1 °F 73% 29.70 in 10.0 mi South 9.2 mph 19.6 mph 0.00 in   Overcast
11:25 PM 33.8 °F 23.9 °F 28.4 °F 81% 29.75 in 10.0 mi SSW 15.0 mph 23.0 mph N/A   Overcast
11:34 PM 32.0 °F 22.1 °F 28.4 °F 87% 29.75 in 10.0 mi South 13.8 mph 23.0 mph N/A   Overcast
11:48 PM 32.0 °F 23.0 °F 30.2 °F 93% 29.75 in 1.8 mi SSW 11.5 mph 25.3 mph 0.00 in Snow Light Snow
11:54 PM 32.0 °F 21.6 °F 30.2 °F 93% 29.75 in 1.0 mi SSW 15.0 mph 23.0 mph N/A Snow Light Snow
11:59 PM 32.0 °F 21.6 °F 28.4 °F 87% 29.75 in 2.0 mi SSW 15.0 mph 25.3 mph 0.00 in Snow Light Snow